This is the latest recevied weather packets stored in our database for station/object DO7ZT-13. If no packets are shown the sender has not sent any weather packets the latest 10 day(s).
| Time | Temp. | Humidity | Pressure | Rain* | Wind** | Luminosity | Snow |
|---|---|---|---|---|---|---|---|
| 1777641024 | 20° C | 30% | 1027 hPa | 0 mm | 0.45 m/s, 216° | - | - |
| 1777640710 | 20° C | 32% | 1027 hPa | 0 mm | 0.45 m/s, 276° | - | - |
| 1777640423 | 20° C | 30% | 1027.2 hPa | 0 mm | 0 m/s | - | - |
| 1777640110 | 20° C | 34% | 1027.2 hPa | 0 mm | 0.45 m/s, 6° | - | - |
| 1777639823 | 20° C | 32% | 1027.2 hPa | 0 mm | 0.89 m/s, 282° | - | - |
| 1777639510 | 20° C | 31% | 1027.4 hPa | 0 mm | 0.45 m/s, 274° | - | - |
| 1777639223 | 20° C | 32% | 1027.4 hPa | 0 mm | 0.45 m/s, 294° | - | - |
| 1777638910 | 20° C | 33% | 1027.4 hPa | 0 mm | 0.89 m/s, 324° | - | - |
| 1777638623 | 18.89° C | 32% | 1027.5 hPa | 0 mm | 0 m/s | - | - |
| 1777638310 | 20° C | 34% | 1027.5 hPa | 0 mm | 1.79 m/s, 306° | - | - |
| 1777638022 | 20° C | 32% | 1027.5 hPa | 0 mm | 0.45 m/s, 12° | - | - |
| 1777637710 | 20° C | 33% | 1027.6 hPa | 0 mm | 0.45 m/s, 312° | - | - |
| 1777637422 | 20° C | 33% | 1027.6 hPa | 0 mm | 0.89 m/s, 300° | - | - |
| 1777637110 | 18.89° C | 32% | 1027.6 hPa | 0 mm | 0.89 m/s, 318° | - | - |
| 1777636822 | 20° C | 32% | 1027.8 hPa | 0 mm | 0.89 m/s, 282° | - | - |
| 1777636510 | 18.89° C | 35% | 1027.8 hPa | 0 mm | 0.45 m/s, 267° | - | - |
| 1777636222 | 18.89° C | 32% | 1027.8 hPa | 0 mm | 1.34 m/s, 307° | - | - |
| 1777635909 | 18.89° C | 34% | 1027.9 hPa | 0 mm | 1.34 m/s, 256° | - | - |
| 1777635622 | 20° C | 35% | 1027.9 hPa | 0 mm | 0.89 m/s, 302° | - | - |
| 1777635309 | 18.89° C | 36% | 1027.9 hPa | 0 mm | 0.89 m/s, 300° | - | - |
| 1777635035 | 18.89° C | 33% | 1028.2 hPa | 0 mm | 0.45 m/s, 244° | - | - |
| 1777634722 | 18.89° C | 37% | 1028.2 hPa | 0 mm | 1.34 m/s, 295° | - | - |
| 1777634409 | 18.89° C | 35% | 1028.2 hPa | 0 mm | 1.34 m/s, 249° | - | - |
| 1777634122 | 18.89° C | 35% | 1028.2 hPa | 0 mm | 0.89 m/s, 312° | - | - |
| 1777633809 | 18.89° C | 36% | 1028.2 hPa | 0 mm | 1.79 m/s, 348° | - | - |
* Rain latest hour (hover to see other rain measurements)
** Current wind speed in m/s (hover to see current wind gust speed)